CUTE-1 (CO-55) 1 27844U 03031E 25342.93670807 .00000569 00000+0 26593-3 0 9995 2 27844 98.6765 348.8888 0009979 24.1223 336.0422 14.24173894164591 CUBESAT XI-IV (CO-57) 1 27848U 03031J 25342.97166608 .00000468 00000+0 22519-3 0 9994 2 27848 98.6794 348.7884 0010172 40.9807 319.2134 14.23482730164317 CUBESAT XI-V 1 28895U 05043F 25342.97463591 .00002688 00000+0 43703-3 0 9997 2 28895 98.2724 129.9889 0015414 89.4547 270.8425 14.71875730 73768 CUTE-1.7+APD II (CO-65) 1 32785U 08021C 25342.92044503 .00008061 00000+0 54252-3 0 9994 2 32785 97.8093 315.9545 0008179 327.3446 32.7274 15.06970940956511 CANX-2 1 32790U 08021H 25342.90781841 .00005869 00000+0 43218-3 0 9994 2 32790 97.8439 314.4968 0009868 338.3282 21.7524 15.03712834956193 SEEDS II (CO-66) 1 32791U 08021J 25342.90140868 .00021878 00000+0 87670-3 0 9991 2 32791 97.7449 327.9148 0000874 250.5935 109.5207 15.25049276958216 SWISSCUBE 1 35932U 09051B 25342.66432955 .00002773 00000+0 56329-3 0 9999 2 35932 98.4141 242.1714 0008095 84.9881 275.2244 14.61940269861319 BEESAT-1 1 35933U 09051C 25342.99016664 .00001678 00000+0 35001-3 0 9998 2 35933 98.4072 242.5220 0006532 95.5201 264.6744 14.61262739861403 ITUPSAT1 1 35935U 09051E 25342.67944670 .00002148 00000+0 45735-3 0 9990 2 35935 98.4167 241.5889 0008598 105.7568 254.4580 14.60020211860932 TISAT 1 1 36799U 10035E 25342.77046425 .00028056 00000+0 11848-2 0 9998 2 36799 98.0598 268.8689 0002832 140.9224 219.2216 15.23227771838637 AEROCUBE 4.5A 1 38767U 12048K 25342.68369688 .00066037 00000+0 11365-2 0 9995 2 38767 64.6430 333.2393 0068128 233.1297 126.3586 15.48080090342841 STRAND-1 1 39090U 13009E 25342.77035329 .00000775 00000+0 27556-3 0 9992 2 39090 98.3823 162.7635 0009777 81.3731 278.8563 14.37000406669712 BRITE-AUSTRIA 1 39091U 13009F 25342.77373963 .00000502 00000+0 18571-3 0 9997 2 39091 98.3889 161.9964 0011354 89.0324 271.2163 14.36432747669717 NEE-01 PEGASO 1 39151U 13018B 25342.93624362 .00004781 00000+0 47289-3 0 9995 2 39151 98.0962 116.3113 0014167 72.6044 287.6722 14.92309888682319 POPACS 1 1 39268U 13055D 25342.67778512 .00235705 16885-4 74533-3 0 9990 2 39268 80.9553 216.9762 0121386 60.7802 300.5534 15.80037217642935 POPACS 2 1 39269U 13055E 25342.78363119 .00020980 00000+0 37880-3 0 9994 2 39269 80.9938 1.0011 0448982 82.5550 282.6427 14.83236813634903 POPACS 3 1 39270U 13055F 25342.97361901 .00009814 00000+0 24447-3 0 9992 2 39270 81.0043 74.7906 0567514 287.6595 66.3421 14.51756264610912 ZACUBE-1 (TSHEPISOSAT) 1 39417U 13066B 25342.85361528 .00007686 00000+0 62718-3 0 9997 2 39417 97.8077 299.3924 0041723 159.3204 200.9719 14.99029754652194 WNISAT-1 1 39423U 13066H 25342.95694244 .00001587 00000+0 29707-3 0 9994 2 39423 97.6928 140.9752 0165428 110.9678 250.9312 14.57628514639014 TRITON-1 1 39427U 13066M 25342.99126012 .00004563 00000+0 56066-3 0 9990 2 39427 97.8319 252.1969 0093067 133.0297 227.8760 14.80458514645937 GOMX-1 1 39430U 13066Q 25342.94993214 .00004690 00000+0 71831-3 0 9993 2 39430 97.6589 190.3121 0129953 328.8163 30.5378 14.68558549641981 CUBEBUG-2 (LO-74) 1 39440U 13066AA 25342.84921938 .00008910 00000+0 85790-3 0 9995 2 39440 97.8705 286.5254 0058371 298.9968 60.5408 14.91904364648591 NEE-02 KRYSAOR 1 39441U 13066AB 25342.80293963 .00005497 00000+0 61704-3 0 9998 2 39441 97.8732 278.7110 0066920 335.1602 24.6396 14.85555634647922 FUNCUBE-1 (AO-73) 1 39444U 13066AE 25342.86753298 .00010318 00000+0 70183-3 0 9998 2 39444 97.8055 306.0985 0040272 128.4651 232.0199 15.05850214650988 UWE-3 1 39446U 13066AG 25342.80577083 .00008157 00000+0 73239-3 0 9993 2 39446 97.8471 293.1528 0049487 232.8882 126.7811 14.95038720649115 BRITE-CA1 (TORONTO) 1 40020U 14033L 25342.90203441 .00002269 00000+0 35042-3 0 9991 2 40020 97.9492 110.7201 0079648 165.2702 195.0853 14.72190930614218 DUCHIFAT-1 1 40021U 14033M 25342.81295938 .00047384 00000+0 11758-2 0 9998 2 40021 98.0787 14.2189 0007906 46.9660 313.2245 15.40181087626241 NANOSATC-BR1 1 40024U 14033Q 25342.98414825 .00020455 00000+0 83512-3 0 9995 2 40024 98.0901 354.3436 0005533 113.2346 246.9473 15.24430060624937 QB50P1 1 40025U 14033R 25342.98575735 .00011767 00000+0 64461-3 0 9992 2 40025 98.0968 336.3427 0010224 145.8491 214.3398 15.14343194624201 QB50P2 1 40032U 14033Y 25342.90756417 .00011459 00000+0 67570-3 0 9992 2 40032 98.0640 323.5567 0009635 100.1519 260.0797 15.11710069623888 PERSEUS-M2 1 40037U 14033AD 25342.93039779 .00004234 00000+0 39552-3 0 9997 2 40037 97.9754 284.9794 0011101 203.3499 156.7218 14.94671425622355 PERSEUS-M1 1 40039U 14033AF 25342.78117073 .00004830 00000+0 44972-3 0 9990 2 40039 97.9458 279.1427 0010921 201.4042 158.6723 14.94727572622187 POLYITAN-1 1 40042U 14033AJ 25342.94414507 .00022309 00000+0 88303-3 0 9991 2 40042 98.1079 347.2029 0010500 89.8471 270.3969 15.25414820624512 TIGRISAT 1 40043U 14033AK 25342.92599982 .00002975 00000+0 35525-3 0 9996 2 40043 97.7564 132.7391 0049806 340.1673 19.7604 14.84094126617390 AEROCUBE 6A 1 40045U 14033AM 25342.96808079 .00009024 00000+0 81345-3 0 9995 2 40045 97.7050 147.5138 0039707 293.1027 66.6011 14.95181979618168 AEROCUBE 6B 1 40046U 14033AN 25342.94606810 .00010713 00000+0 93390-3 0 9993 2 40046 97.7028 146.9176 0037853 285.0709 74.6325 14.96494619618274 CANX-4 1 40055U 14034C 25342.56416453 .00002525 00000+0 33482-3 0 9992 2 40055 98.3357 205.6053 0011575 263.8742 96.1150 14.80770818616316 CANX-5 1 40056U 14034D 25342.56474542 .00002537 00000+0 33619-3 0 9991 2 40056 98.3359 205.6382 0011577 264.1157 95.8734 14.80786871607129 UKUBE-1 1 40074U 14037F 25342.94178044 .00012904 00000+0 80635-3 0 9993 2 40074 98.4147 321.9076 0003565 81.6110 278.5521 15.09610754619817 BRITE-PL2 (HEWELIUSZ) 1 40119U 14049B 25342.84828156 .00004792 00000+0 45834-3 0 9999 2 40119 97.8997 88.6936 0014797 26.6077 333.5899 14.93629107613026 AEROCUBE 5C 1 40965U 15058B 25342.86339379 .00006343 00000+0 56001-3 0 9997 2 40965 64.7672 134.1126 0138339 137.6230 223.5667 14.90108155337283 AEROCUBE 7 1 40966U 15058C 25342.77154733 .00009974 00000+0 80686-3 0 9996 2 40966 64.7630 120.4514 0128606 137.2867 223.8332 14.93898399337499 FOX-1A (AO-85) 1 40967U 15058D 25342.84760372 .00007287 00000+0 65444-3 0 9997 2 40967 64.7746 149.9185 0135388 131.5096 229.7728 14.89603893 85205 SINOD-D 1 1 40968U 15058E 25342.76928532 .00009675 00000+0 79025-3 0 9996 2 40968 64.7748 134.4091 0123811 129.7282 231.4822 14.94005054 88194 SNAP-3 ALICE 1 40970U 15058G 25342.48805396 .00039897 00000+0 11874-2 0 9996 2 40970 64.7609 28.2613 0044881 122.5522 237.9959 15.33497270 87426 LMRST-SAT 1 40971U 15058H 25342.89027610 .00005553 00000+0 50413-3 0 9992 2 40971 64.7750 145.7783 0137849 133.2790 227.9921 14.89258693 85206 SNAP-3 EDDIE 1 40972U 15058J 25342.47238990 .00042602 00000+0 12312-2 0 9993 2 40972 64.7534 20.2035 0047972 126.3318 234.2258 15.34246230 89540 PROPCUBE 3 1 40973U 15058K 25342.70586686 .00007519 00000+0 62958-3 0 9998 2 40973 64.7691 126.9725 0131086 135.4015 225.7736 14.92618714 86355 BISONSAT 1 40974U 15058L 25342.96827003 .00016351 00000+0 89592-3 0 9995 2 40974 64.7624 66.3430 0087375 131.1357 229.7349 15.11090984 86826 SNAP-3 JIMI 1 40975U 15058M 25342.71679448 .00012500 00000+0 89254-3 0 9994 2 40975 64.7666 101.2837 0113417 133.6349 227.4243 14.99707018 85632 PROPCUBE 1 (FLORA) 1 40976U 15058N 25342.87499973 .00004662 00000+0 44159-3 0 9990 2 40976 64.7736 164.5209 0137261 135.4283 225.7966 14.87929618 87933 SINOD-D 3 1 40977U 15058P 25342.83206903 .00009181 00000+0 78324-3 0 9998 2 40977 64.7723 149.4770 0125928 134.1975 226.9568 14.92222841 86330 HORYU-4 1 41340U 16012D 25342.69175787 .00057756 00000+0 98425-3 0 9998 2 41340 30.9953 337.7631 0006742 193.7796 166.2670 15.50047880540920 RAVAN 1 41849U 16067B 25342.88408089 .00034767 00000+0 89933-3 0 9998 2 41849 98.0160 207.6639 0006692 329.2481 30.8369 15.38991931498286 CELTEE 1 1 41850U 16067C 25342.84169492 .00009533 00000+0 48361-3 0 9991 2 41850 98.0870 191.4437 0001791 114.3756 245.7662 15.17170403496994 OPTICUBE 04 1 41851U 16067D 25342.52363280 .00004354 00000+0 28271-3 0 9992 2 41851 98.0823 179.7656 0017066 45.3941 314.8675 15.08513917496416 AEROCUBE 8D 1 41852U 16067E 25342.86464306 .00013068 00000+0 59285-3 0 9992 2 41852 98.0897 193.6991 0005139 74.6619 285.5183 15.20954257497105 AEROCUBE 8C 1 41853U 16067F 25342.52277350 .00011831 00000+0 53428-3 0 9996 2 41853 98.0760 190.8236 0006143 13.4976 346.6421 15.21134033497049 CORVUS BC2 1 42846U 17042X 25342.98065088 .00005089 00000+0 36498-3 0 9992 2 42846 97.3855 147.1702 0014985 47.9397 312.3102 15.04674292458448 CORVUS BC1 1 42847U 17042Y 25342.93540778 .00005365 00000+0 38238-3 0 9993 2 42847 97.3887 147.8028 0012880 25.3009 334.8846 15.04916090458465 MAKERSAT 0 1 43016U 17073D 25342.58698168 .00027662 00000+0 93483-3 0 9991 2 43016 97.4886 219.5020 0126130 226.0162 133.0622 15.23220757437363 SIRION PATHFINDER-2 1 43759U 18099B 25342.64327453 .00008172 00000+0 47576-3 0 9994 2 43759 97.4539 31.2138 0007921 233.6652 126.3848 15.12256961383803 CORVUS BC4 1 43767U 18099K 25342.67190259 .00008263 00000+0 50516-3 0 9997 2 43767 97.4353 26.1762 0007415 304.6209 55.4321 15.10483258383624 SPACEBEE-7 1 43816U 18099BL 25342.73412363 .00115709 00000+0 15602-2 0 9992 2 43816 97.4724 58.2084 0003372 179.3468 180.7793 15.57411257384904 SHIELDS 1 1 43850U 18104B 25342.82712226 .00144577 00000+0 64206-3 0 9998 2 43850 85.0067 266.5810 0008027 111.0320 249.1815 15.83925004390033 DUCHIFAT-3 1 44854U 19089C 25342.83480616 .09794280 36047-5 11773-2 0 9999 2 44854 36.9155 249.5046 0006919 243.1769 116.8309 16.35254048331523 M2 PATHFINDER 1 45727U 20037E 25342.92034691 .00003965 00000+0 29518-3 0 9997 2 45727 97.8138 167.1173 0013407 77.2044 283.0678 15.03467376296898 NETSAT-4 1 46504U 20068U 25342.92053195 .00020357 00000+0 57139-3 0 9999 2 46504 97.8598 331.9530 0004357 287.0631 73.0134 15.36588077286483 NETSAT-3 1 46505U 20068V 25342.95924878 .00020622 00000+0 60605-3 0 9995 2 46505 97.8623 330.5209 0004437 311.3294 48.7566 15.35143394286426 NETSAT-1 1 46506U 20068W 25342.93531985 .00016428 00000+0 58643-3 0 9995 2 46506 97.8673 326.8262 0004855 333.9658 26.1336 15.28942102286170 NETSAT-2 1 46507U 20068X 25342.92113530 .00024589 00000+0 67983-3 0 9991 2 46507 97.8612 331.4251 0003638 340.0389 20.0711 15.37022517286429 WILDTRACKCUBE-SIMBA 1 47941U 21022K 25342.95288434 .00122672 00000+0 11888-2 0 9998 2 47941 97.4055 253.4220 0007789 35.6839 324.4940 15.65950169261495 GREENCUBE (IO-117) 1 53109U 22080E 25341.44020854 -.00000003 00000+0 00000+0 0 9994 2 53109 70.1574 4.9251 0008983 329.2025 30.8107 6.42583177 79745 SITRO-AIS 5 (KATYS) 1 57176U 23091L 25342.97472969 .00015028 00000+0 61493-3 0 9991 2 57176 97.5345 40.4678 0013857 56.6261 303.6300 15.24338718135310 SITRO-AIS 6 (CHIRKIN) 1 57192U 23091AC 25342.95266156 .00008174 00000+0 35097-3 0 9991 2 57192 97.5347 40.3218 0014138 58.8359 301.4261 15.22871506135300 SITRO-AIS 8 (ANOKHIN) 1 57193U 23091AD 25342.94907059 .00016798 00000+0 64949-3 0 9994 2 57193 97.5339 41.3759 0013106 55.1812 305.0657 15.26219577135375 SITRO-AIS 7 (FARTUSHNIY) 1 57194U 23091AE 25342.98990567 .00007951 00000+0 34355-3 0 9994 2 57194 97.5346 40.2612 0013997 59.3206 300.9408 15.22670129135302 SITRO-AIS 10 (BURDAEV) 1 57199U 23091AK 25342.93811909 .00029143 00000+0 98131-3 0 9995 2 57199 97.5354 44.7779 0008767 38.5982 321.5883 15.30688545135584 SITRO-AIS 9 (SHCHUKIN) 1 57201U 23091AM 25342.98210586 .00021992 00000+0 74846-3 0 9999 2 57201 97.5354 44.6690 0008822 38.8520 321.3353 15.30401221135586 SITRO-AIS 12 (SMIRENNIY) 1 57204U 23091AQ 25342.93890726 .00024391 00000+0 82387-3 0 9992 2 57204 97.5364 44.9893 0008544 32.8743 327.3027 15.30626575135596 SITRO-AIS 11 (SHEFFER) 1 57208U 23091AU 25342.99545399 .00021729 00000+0 72845-3 0 9995 2 57208 97.5362 45.1963 0008425 32.6454 327.5306 15.30895467135617 SITRO-AIS 25 1 59066U 24039R 25342.98149201 .00006588 00000+0 53750-3 0 9993 2 59066 95.3959 104.5091 0148181 272.3537 86.0729 14.91356625 96357 SITRO-AIS 26 1 59067U 24039S 25342.95906650 .00007596 00000+0 62177-3 0 9993 2 59067 95.3960 104.4262 0148358 272.8104 85.6149 14.91184774 96344 SITRO-AIS 27 1 59068U 24039T 25342.97963455 .00007131 00000+0 57935-3 0 9993 2 59068 95.3961 104.6307 0147591 271.7552 86.6774 14.91555158 96366 SITRO-AIS 28 1 59071U 24039U 25342.96167810 .00007956 00000+0 64562-3 0 9996 2 59071 95.3961 104.6552 0147373 271.6755 86.7595 14.91596763 96363 GRBBETA 1 60237U 24128C 25342.96358895 .00006099 00000+0 43101-3 0 9999 2 60237 61.9891 162.7657 0056351 95.8452 264.9067 15.04691075 77625 OOV-CUBE (TUBSAT-30) 1 60240U 24128F 25342.88451938 .00003625 00000+0 28440-3 0 9997 2 60240 61.9937 168.6021 0058570 93.5173 267.2619 15.01568468 77524 ROBUSTA-3A (MEDITERRAN*) 1 60243U 24128J 25342.88731364 .00008734 00000+0 55616-3 0 9995 2 60243 61.9859 159.5154 0056175 90.2682 270.4849 15.08124568 77688 LASARSAT 1 62391U 24247Q 25342.11510508 .00029969 00000+0 89298-3 0 9990 2 62391 44.9774 246.1447 0001820 91.8611 268.2482 15.34209436 53853 CROCUBE 1 62394U 24247T 25342.45750237 .00031616 00000+0 92147-3 0 9994 2 62394 44.9760 243.5700 0003055 102.4588 257.6639 15.34879459 53919